Change the Weather History Date:

Friday, October 5, 2012

  Actual Average Record
Temperature  
Mean Temperature 67 °F -  
Max Temperature 75 °F 62 °F 82 °F (2001)
Min Temperature 59 °F 42 °F 33 °F (2004)
Cooling Degree Days 2    
Growing Degree Days 17 (Base 50)    
Moisture  
Dew Point 58 °F    
Average Humidity 85    
Maximum Humidity 96    
Minimum Humidity 50    
Precipitation  
Precipitation 0.01 in - - ()
Sea Level Pressure  
Sea Level Pressure 29.97 in    
Wind  
Wind Speed 2 mph (WSW)    
Max Wind Speed 8 mph    
Max Gust Speed -    
Visibility 5 miles    
Events Fog    
Averages and records for this station are not official NWS values.
T = Trace of Precipitation, MM = Missing Value Source: NWS Daily Summary

Daily Weather History Graph

Daily Weather History Graph

Search for Another Location

Airport or City:

Trip Planner

Search our weather history database for the weather conditions in past years. The results will help you decide how hot, cold, wet, or windy it might be!

Date:

Astronomy

Oct. 05, 2012 Rise Set
Actual Time 6:45 AM EDT 6:17 PM EDT
Civil Twilight 6:17 AM EDT 6:45 PM EDT
Nautical Twilight 5:44 AM EDT 7:18 PM EDT
Astronomical Twilight 5:12 AM EDT 7:50 PM EDT
Moon 9:32 PM EDT (10/5) 11:57 AM EDT (10/5)
Length of Visible Light 12h 27m
Length of Day
11h 31m
Waning Gibbous, 74% of the Moon is Illuminated
Oct 5
Waning Gibbous
Oct 8
Last Quarter
Oct 15
New
Oct 21
First Quarter
Oct 29
Full

Hourly Weather History & Observations

Time (EDT) Temp. Dew Point Humidity Pressure Visibility Wind Dir Wind Speed Gust Speed Precip Events Conditions
12:53 AM 60.1 °F 57.9 °F 93% 30.01 in 0.5 mi Calm Calm - N/A   Mist
1:20 AM 60.8 °F 59.0 °F 94% 30.02 in 0.2 mi Calm Calm - N/A   Mist
1:53 AM 60.1 °F 59.0 °F 96% 30.00 in 0.2 mi Calm Calm - N/A   Mist
2:28 AM 60.8 °F 59.0 °F 94% 30.00 in 0.5 mi Calm Calm - N/A   Mist
2:53 AM 60.1 °F 59.0 °F 96% 29.99 in 0.5 mi Calm Calm - N/A   Mist
3:11 AM 60.8 °F 59.0 °F 94% 30.00 in 0.2 mi Calm Calm - N/A   Mist
3:53 AM 60.1 °F 59.0 °F 96% 29.99 in 0.5 mi West 3.5 mph - 0.01 in   Mist
4:53 AM 60.1 °F 57.9 °F 93% 29.99 in 0.5 mi West 3.5 mph - N/A   Mist
5:02 AM 60.8 °F 59.0 °F 94% 30.00 in 0.2 mi Calm Calm - N/A   Mist
5:11 AM 60.8 °F 57.2 °F 88% 30.00 in 0.5 mi West 5.8 mph - N/A   Mist
5:27 AM 60.8 °F 57.2 °F 88% 30.00 in 0.2 mi WNW 3.5 mph - N/A   Mist
5:53 AM 59.0 °F 57.9 °F 96% 29.99 in 0.2 mi West 4.6 mph - N/A   Mist
6:16 AM 60.8 °F 57.2 °F 88% 30.00 in 0.5 mi NW 4.6 mph - N/A   Mist
6:26 AM 60.8 °F 57.2 °F 88% 30.00 in 0.2 mi Calm Calm - N/A   Mist
6:53 AM 60.1 °F 57.9 °F 93% 30.00 in 0.2 mi Calm Calm - N/A Fog Fog
7:53 AM 60.1 °F 59.0 °F 96% 30.00 in 0.2 mi Calm Calm - N/A Fog Fog
8:43 AM 60.8 °F 57.2 °F 88% 30.01 in 0.8 mi WSW 3.5 mph - N/A   Mist
8:53 AM 60.1 °F 57.9 °F 93% 30.00 in 1.0 mi West 4.6 mph - N/A   Overcast
9:19 AM 60.8 °F 59.0 °F 94% 30.01 in 8.0 mi SW 4.6 mph - N/A   Mostly Cloudy
9:53 AM 62.1 °F 60.1 °F 93% 30.00 in 10.0 mi Calm Calm - N/A   Mostly Cloudy
10:25 AM 64.4 °F 59.0 °F 83% 30.00 in 10.0 mi WSW 5.8 mph - N/A   Scattered Clouds
10:53 AM 66.0 °F 59.0 °F 78% 29.99 in 10.0 mi Variable 4.6 mph - N/A   Scattered Clouds
11:53 AM 70.0 °F 59.0 °F 68% 29.97 in 10.0 mi Variable 5.8 mph - N/A   Clear
12:53 PM 73.4 °F 57.2 °F 57% 29.97 in 10.0 mi WNW 6.9 mph - N/A   Partly Cloudy
1:53 PM 75.0 °F 57.9 °F 55% 29.94 in 10.0 mi WNW 6.9 mph - N/A   Clear
2:53 PM 75.9 °F 55.9 °F 50% 29.92 in 10.0 mi Variable 5.8 mph - N/A   Clear
3:53 PM 72.0 °F 59.0 °F 64% 29.91 in 10.0 mi SE 8.1 mph - N/A   Clear
4:53 PM 69.1 °F 59.0 °F 70% 29.91 in 10.0 mi SE 5.8 mph - N/A   Clear
5:53 PM 64.9 °F 59.0 °F 81% 29.92 in 10.0 mi SSE 6.9 mph - N/A   Clear
6:53 PM 63.0 °F 57.9 °F 84% 29.92 in 10.0 mi Calm Calm - N/A   Clear
7:53 PM 63.0 °F 57.9 °F 84% 29.92 in 10.0 mi Calm Calm - N/A   Clear
8:53 PM 62.1 °F 57.9 °F 86% 29.92 in 8.0 mi Calm Calm - N/A   Clear
9:53 PM 61.0 °F 57.9 °F 90% 29.91 in 6.0 mi Calm Calm - N/A   Clear
10:53 PM 60.1 °F 57.0 °F 90% 29.91 in 4.0 mi Calm Calm - N/A   Clear
11:53 PM 62.1 °F 55.9 °F 80% 29.89 in 10.0 mi SSW 4.6 mph - N/A   Clear